Погода в Кувшиново

Россия / Тверская область     57°01′44″N   34°09′57″E
темп.,
°C
ветер,
м/с
пор.,
м/с
влажн.,
%
обл.,
%
осадки,
мм/ч
давл.,
гПа
погр.,
м
6 марта, сб
сб600:00−10зсз25931 0.0 1015127
03:00−10з26940 0.0 1017148
06:00−10з269648 0.0 1017198
09:00−8зсз378969 0.1 1018626
12:00−6зсз3573100 0.1 10171036
15:00−4зсз4663100 0.2 10151327
18:00−6юз377754 0.1 1013207
21:00−6юз5127773 0.1 1010894
7 марта, вс
вс700:00−6юз71590100 0.3 10051144
03:00−4юз71592100 1.3 10001183
06:00−3юз71592100 1.8 9941153
09:00−2зюз71294100 4.3 992959
12:00−5зсз81463100 0.9 9932042
15:00−5з6117672 1.1 9941454
18:00−5зюз41290100 1.1 9931329
21:00−7зсз3995100 2.0 992593
8 марта, пн
пн800:00−10зсз259792 0.1 993154
03:00−12сз389684 0.1 995255
06:00−10сз51187100 0.1 998639
09:00−10сз6128783 0.1 1000838
12:00−8сз5982100 0.1 1003917
15:00−8сз5980100 0.3 10061078
18:00−10сз5987100 0.2 1008877
21:00−12ссз4990100 0.3 1011632
9 марта, вт
вт900:00−15ссз3894100 0.1 1013465
03:00−17сз3895100 0.1 1015365
06:00−19сз379799 0.0 1017258
09:00−18сз369182 0.0 1019277
12:00−12зсз247731 0.0 1018513
15:00−10зсз237064 0.0 1018732
18:00−11ююв0093100 0.3 1016129
21:00−12всв3595100 0.7 1017320
10 марта, ср
ср1000:00−14всв4894100 0.4 1018407
03:00−18св3796100 0.5 1020250
06:00−22св269729 0.0 1022169
09:00−21св359215 0.0 1024247
12:00−16св35780 0.0 1025440
15:00−14всв24710 0.0 1025638
18:00−16всв22854 0.0 102555
21:00−20в229541 0.0 102629